Zurück zum Katalog

FENGYUN 1C DEB *

LostPO
NORAD 46988·DEBRIS·🇨🇳 China

Gestartet May 10, 1999 von Taiyuan Satellite Launch Center

Loading…

Nächste Überflüge (nächste 24 Stunden)

TLE

VeraltetSource: Space-Track

Epoche: Oct 23, 2022, 10:38 UTC

1 46988U 99025EZN 22296.44336501  .00001899  00000-0  18120-2 0  9998
2 46988  98.9291 270.8946 0233575 203.7227 268.0270 13.70297897434233

Verfolge FENGYUN 1C DEB * in Echtzeit mit AllMySat

Download on the App Store